| time (UTC) | temp C | wind direction | speed KPH | gust KPH | rain 1hr cm | rain 24hr cm | rain mn cm | humidity % | barometer mb |
| 20260505234558 | 9 | 5 | 6.4 | 17.7 | 0.00 | 0.00 | 0.00 | 79 | 1012.9 |
| 20260505233058 | 9 | 29 | 4.8 | 14.5 | 0.00 | 0.00 | 0.00 | 79 | 1013.0 |
| 20260505231558 | 10 | 348 | 3.2 | 11.3 | 0.00 | 0.00 | 0.00 | 78 | 1013.0 |
| 20260505230122 | 10 | 5 | 1.6 | 12.9 | 0.00 | 0.00 | 0.00 | 77 | 1013.0 |
| 20260505224555 | 10 | 360 | 3.2 | 14.5 | 0.00 | 0.00 | 0.00 | 77 | 1013.0 |
| 20260505223054 | 10 | 348 | 3.2 | 16.1 | 0.00 | 0.00 | 0.00 | 76 | 1013.1 |
| 20260505221559 | 10 | 15 | 6.4 | 19.3 | 0.00 | 0.00 | 0.00 | 75 | 1013.1 |
| 20260505214609 | 10 | 21 | 6.4 | 16.1 | 0.00 | 0.00 | 0.00 | 75 | 1013.1 |
| 20260505213054 | 10 | 36 | 4.8 | 17.7 | 0.00 | 0.00 | 0.00 | 75 | 1013.0 |
| 20260505211601 | 11 | 22 | 3.2 | 16.1 | 0.00 | 0.00 | 0.00 | 75 | 1013.0 |
| 20260505204603 | 11 | 42 | 8.0 | 20.9 | 0.00 | 0.00 | 0.00 | 79 | 1013.0 |
| 20260505203106 | 11 | 5 | 6.4 | 14.5 | 0.00 | 0.00 | 0.00 | 79 | 1012.9 |
| 20260505201555 | 11 | 40 | 3.2 | 11.3 | 0.00 | 0.00 | 0.00 | 79 | 1012.8 |
| 20260505200106 | 12 | 10 | 3.2 | 12.9 | 0.00 | 0.00 | 0.00 | 78 | 1012.8 |
| 20260505194551 | 12 | 21 | 4.8 | 16.1 | 0.00 | 0.00 | 0.00 | 76 | 1012.6 |
| 20260505193102 | 12 | 86 | 3.2 | 24.1 | 0.00 | 0.00 | 0.00 | 73 | 1012.4 |
| 20260505191557 | 12 | 40 | 3.2 | 14.5 | 0.00 | 0.00 | 0.00 | 70 | 1012.3 |
| 20260505190054 | 13 | 16 | 6.4 | 19.3 | 0.00 | 0.00 | 0.00 | 69 | 1012.1 |
| 20260505184557 | 13 | 5 | 9.7 | 19.3 | 0.00 | 0.00 | 0.00 | 66 | 1011.9 |
| 20260505183057 | 13 | 0 | 1.6 | 8.0 | 0.00 | 0.00 | 0.00 | 63 | 1011.7 |
| 20260505181559 | 13 | 38 | 1.6 | 6.4 | 0.00 | 0.00 | 0.00 | 62 | 1011.7 |
| 20260505180058 | 13 | 0 | 3.2 | 9.7 | 0.00 | 0.00 | 0.00 | 62 | 1011.5 |
| 20260505174602 | 13 | 98 | 3.2 | 9.7 | 0.00 | 0.00 | 0.00 | 61 | 1011.5 |
| 20260505173055 | 13 | 109 | 3.2 | 9.7 | 0.00 | 0.00 | 0.00 | 60 | 1011.6 |
| 20260505171556 | 13 | 107 | 4.8 | 12.9 | 0.00 | 0.00 | 0.00 | 60 | 1011.6 |
| 20260505170055 | 13 | 106 | 4.8 | 9.7 | 0.00 | 0.00 | 0.00 | 60 | 1011.6 |
| 20260505164554 | 13 | 100 | 4.8 | 9.7 | 0.00 | 0.00 | 0.00 | 60 | 1011.6 |
| 20260505163054 | 13 | 148 | 3.2 | 14.5 | 0.00 | 0.00 | 0.00 | 59 | 1011.7 |
| 20260505161551 | 14 | 133 | 6.4 | 16.1 | 0.00 | 0.00 | 0.00 | 58 | 1011.7 |
| 20260505153055 | 15 | 110 | 4.8 | 12.9 | 0.00 | 0.00 | 0.00 | 60 | 1011.8 |
| 20260505151556 | 14 | 94 | 8.0 | 12.9 | 0.00 | 0.00 | 0.00 | 61 | 1011.9 |
| 20260505150106 | 13 | 136 | 6.4 | 14.5 | 0.00 | 0.00 | 0.00 | 63 | 1012.0 |
| 20260505130109 | 16 | 37 | 4.8 | 16.1 | 0.00 | 0.00 | 0.00 | 48 | 1012.2 |
| 20260505124558 | 16 | 349 | 1.6 | 14.5 | 0.00 | 0.00 | 0.00 | 49 | 1012.1 |
| 20260505123057 | 16 | 325 | 4.8 | 14.5 | 0.00 | 0.00 | 0.00 | 50 | 1012.0 |
| 20260505121559 | 16 | 80 | 3.2 | 14.5 | 0.00 | 0.00 | 0.00 | 49 | 1012.1 |
| 20260505120113 | 16 | 132 | 4.8 | 14.5 | 0.00 | 0.00 | 0.00 | 47 | 1012.2 |
| 20260505114555 | 17 | 29 | 4.8 | 14.5 | 0.00 | 0.00 | 0.00 | 45 | 1012.2 |
| 20260505113116 | 16 | 0 | 3.2 | 14.5 | 0.00 | 0.00 | 0.00 | 51 | 1012.2 |
| 20260505111556 | 16 | 0 | 3.2 | 12.9 | 0.00 | 0.00 | 0.00 | 54 | 1012.2 |
| 20260505110123 | 16 | 55 | 6.4 | 16.1 | 0.00 | 0.00 | 0.00 | 51 | 1012.5 |
| 20260505101558 | 15 | 0 | 4.8 | 16.1 | 0.00 | 0.00 | 0.00 | 56 | 1012.9 |
| 20260505100053 | 15 | 67 | 1.6 | 16.1 | 0.00 | 0.00 | 0.00 | 56 | 1013.0 |
| 20260505094618 | 15 | 34 | 3.2 | 12.9 | 0.00 | 0.00 | 0.00 | 58 | 1013.1 |
| 20260505093058 | 13 | 48 | 3.2 | 12.9 | 0.00 | 0.00 | 0.00 | 63 | 1013.1 |
| 20260505091605 | 13 | 346 | 3.2 | 14.5 | 0.00 | 0.00 | 0.00 | 62 | 1013.0 |
| 20260505090104 | 13 | 5 | 3.2 | 16.1 | 0.00 | 0.00 | 0.00 | 60 | 1012.9 |
| 20260505084600 | 13 | 344 | 3.2 | 9.7 | 0.00 | 0.00 | 0.00 | 62 | 1012.9 |
| 20260505083107 | 12 | 344 | 4.8 | 14.5 | 0.00 | 0.00 | 0.00 | 63 | 1013.1 |
| 20260505081604 | 13 | 352 | 6.4 | 16.1 | 0.00 | 0.00 | 0.00 | 67 | 1013.2 |
| 20260505080053 | 12 | 310 | 6.4 | 16.1 | 0.00 | 0.00 | 0.00 | 71 | 1013.2 |
| 20260505074557 | 12 | 42 | 6.4 | 16.1 | 0.00 | 0.00 | 0.00 | 74 | 1013.3 |
| 20260505073104 | 11 | 45 | 4.8 | 16.1 | 0.00 | 0.00 | 0.00 | 77 | 1013.1 |
| 20260505071553 | 11 | 22 | 3.2 | 11.3 | 0.00 | 0.00 | 0.00 | 79 | 1013.1 |
| 20260505070054 | 10 | 25 | 3.2 | 12.9 | 0.00 | 0.00 | 0.00 | 84 | 1013.4 |
| 20260505064555 | 8 | 47 | 3.2 | 12.9 | 0.00 | 0.00 | 0.00 | 87 | 1013.6 |
| 20260505063058 | 8 | 18 | 1.6 | 8.0 | 0.00 | 0.00 | 0.00 | 87 | 1013.6 |
| 20260505061601 | 8 | 5 | 3.2 | 12.9 | 0.00 | 0.00 | 0.00 | 87 | 1013.7 |
| 20260505054558 | 8 | 31 | 1.6 | 4.8 | 0.00 | 0.00 | 0.00 | 86 | 1013.6 |
| 20260505053059 | 8 | 0 | 3.2 | 8.0 | 0.00 | 0.00 | 0.00 | 85 | 1013.5 |
| 20260505051555 | 8 | 0 | 1.6 | 4.8 | 0.00 | 0.00 | 0.00 | 85 | 1013.6 |
| 20260505041556 | 9 | 0 | 1.6 | 4.8 | 0.00 | 0.00 | 0.00 | 84 | 1013.4 |
| 20260505040104 | 9 | 0 | 0.0 | 4.8 | 0.00 | 0.00 | 0.00 | 84 | 1013.5 |
| 20260505034555 | 9 | 0 | 0.0 | 4.8 | 0.00 | 0.00 | 0.00 | 84 | 1013.6 |
| 20260505033052 | 9 | 34 | 0.0 | 3.2 | 0.00 | 0.00 | 0.00 | 84 | 1013.7 |
| 20260505031558 | 10 | 0 | 0.0 | 4.8 | 0.00 | 0.00 | 0.00 | 84 | 1013.7 |
| 20260505030059 | 10 | 83 | 1.6 | 4.8 | 0.00 | 0.00 | 0.00 | 84 | 1013.9 |
| 20260505024555 | 10 | 43 | 0.0 | 6.4 | 0.00 | 0.00 | 0.00 | 84 | 1013.7 |
| 20260505023055 | 10 | 0 | 1.6 | 6.4 | 0.00 | 0.00 | 0.00 | 84 | 1013.9 |
| 20260505021556 | 10 | 38 | 1.6 | 6.4 | 0.00 | 0.00 | 0.00 | 84 | 1013.9 |
| 20260505020054 | 10 | 56 | 1.6 | 6.4 | 0.00 | 0.00 | 0.00 | 84 | 1014.0 |
| 20260505014604 | 10 | 0 | 1.6 | 6.4 | 0.00 | 0.00 | 0.00 | 85 | 1014.1 |
| 20260505013055 | 10 | 27 | 0.0 | 6.4 | 0.00 | 0.00 | 0.00 | 85 | 1014.2 |
| 20260505011556 | 10 | 84 | 1.6 | 8.0 | 0.00 | 0.00 | 0.00 | 84 | 1014.3 |
| 20260505010056 | 10 | 62 | 3.2 | 8.0 | 0.00 | 0.00 | 0.00 | 84 | 1014.4 |
| 20260505004557 | 10 | 47 | 3.2 | 9.7 | 0.00 | 0.00 | 0.00 | 83 | 1014.5 |
| 20260505003054 | 10 | 72 | 3.2 | 11.3 | 0.00 | 0.00 | 0.00 | 83 | 1014.6 |
| 20260505001553 | 10 | 0 | 4.8 | 12.9 | 0.00 | 0.00 | 0.00 | 83 | 1014.8 |
| 20260505000057 | 10 | 95 | 3.2 | 12.9 | 0.00 | 0.00 | 0.00 | 82 | 1014.9 |